Weather History for Ypsilanti, MI

Change the Weather History Date:

Monday, March 25, 2013

  Actual Average Record
Temperature  
Mean Temperature 37 °F -  
Max Temperature 43 °F 48 °F 73 °F (1949)
Min Temperature 32 °F 28 °F 5 °F (1974)
Degree Days  
Heating Degree Days 28    
Moisture  
Dew Point 25 °F    
Average Humidity 64    
Maximum Humidity 80    
Minimum Humidity 49    
Precipitation  
Precipitation 0.00 in - - ()
Sea Level Pressure  
Sea Level Pressure 29.66 in    
Wind  
Wind Speed 17 mph (NNE)    
Max Wind Speed 21 mph    
Max Gust Speed 26 mph    
Visibility 8 miles    
Events Snow    
Averages and records for this station are not official NWS values.
T = Trace of Precipitation, MM = Missing Value Source: NWS Daily Summary

Daily Weather History Graph

Daily Weather History Graph

Search for Another Location

Airport:

Trip Planner

Search our weather history database for the weather conditions in past years. The results will help you decide how hot, cold, wet, or windy it might be!

Date:

Astronomy

Mar. 25, 2013 Rise Set
Actual Time 7:28 AM EDT 7:52 PM EDT
Civil Twilight 7:00 AM EDT 8:20 PM EDT
Nautical Twilight 6:27 AM EDT 8:53 PM EDT
Astronomical Twilight 5:53 AM EDT 9:27 PM EDT
Moon 6:21 PM EDT (3/25) 6:12 AM EDT (3/25)
Length of Visible Light 13h 20m
Length of Day
12h 23m
Waxing Gibbous, 96% of the Moon is Illuminated
Mar 25
Waxing Gibbous
Mar 27
Full
Apr 3
Last Quarter
Apr 10
New
Apr 18
First Quarter

Hourly Weather History & Observations

Time (EDT) Temp. Windchill Dew Point Humidity Pressure Visibility Wind Dir Wind Speed Gust Speed Precip Events Conditions
12:53 AM 34.0 °F 22.7 °F 21.9 °F 61% 29.61 in 10.0 mi NE 19.6 mph - N/A   Overcast
1:53 AM 35.1 °F 24.8 °F 21.9 °F 59% 29.61 in 10.0 mi NE 17.3 mph 23.0 mph N/A   Overcast
2:05 AM 33.8 °F 22.5 °F 21.2 °F 60% 29.59 in 5.0 mi NE 19.6 mph - 0.00 in Snow Light Snow
2:44 AM 33.8 °F 22.5 °F 23.0 °F 65% 29.58 in 9.0 mi NE 19.6 mph 25.3 mph 0.00 in   Overcast
2:53 AM 34.0 °F 23.4 °F 21.9 °F 61% 29.59 in 10.0 mi NNE 17.3 mph 25.3 mph 0.00 in   Overcast
3:53 AM 34.0 °F 23.4 °F 21.9 °F 61% 29.57 in 10.0 mi NE 17.3 mph 26.5 mph N/A   Overcast
4:53 AM 34.0 °F 23.0 °F 21.9 °F 61% 29.56 in 10.0 mi NE 18.4 mph - N/A   Overcast
5:53 AM 33.1 °F 21.9 °F 24.1 °F 70% 29.57 in 6.0 mi NE 18.4 mph 25.3 mph 0.00 in Snow Light Snow
6:53 AM 32.0 °F 21.2 °F 25.0 °F 75% 29.57 in 6.0 mi NNE 16.1 mph - 0.00 in   Overcast
7:02 AM 32.0 °F 21.2 °F 26.6 °F 80% 29.56 in 7.0 mi NNE 16.1 mph 20.7 mph 0.00 in   Overcast
7:53 AM 33.1 °F 22.2 °F 26.1 °F 75% 29.58 in 2.0 mi NNE 17.3 mph - 0.00 in Snow Light Snow
8:00 AM 33.8 °F 24.3 °F 26.6 °F 75% 29.57 in 1.2 mi NNE 13.8 mph - 0.00 in Snow Light Snow
8:07 AM 32.0 °F 22.1 °F 26.6 °F 80% 29.57 in 2.0 mi NNE 13.8 mph - 0.00 in Snow Light Snow
8:53 AM 34.0 °F 22.7 °F 25.0 °F 70% 29.59 in 2.0 mi NNE 19.6 mph 26.5 mph 0.00 in   Haze
9:00 AM 33.8 °F 22.8 °F 24.8 °F 70% 29.58 in 10.0 mi NNE 18.4 mph 26.5 mph N/A   Overcast
9:53 AM 34.0 °F 23.4 °F 25.0 °F 70% 29.61 in 10.0 mi NNE 17.3 mph 21.9 mph N/A   Overcast
10:53 AM 36.0 °F 25.6 °F 24.1 °F 62% 29.62 in 10.0 mi NNE 18.4 mph 25.3 mph N/A   Overcast
11:53 AM 37.9 °F 28.9 °F 25.0 °F 60% 29.63 in 10.0 mi NNE 16.1 mph 21.9 mph N/A   Overcast
12:53 PM 39.0 °F 29.3 °F 24.1 °F 55% 29.65 in 10.0 mi NNE 19.6 mph - N/A   Overcast
2:01 PM 39.2 °F 29.3 °F 26.6 °F 61% 29.66 in 5.0 mi North 20.7 mph 24.2 mph N/A   Haze
2:53 PM 39.0 °F 31.4 °F 28.0 °F 65% 29.68 in 3.0 mi North 12.7 mph - 0.00 in   Haze
3:02 PM 37.4 °F 29.3 °F 28.4 °F 70% 29.67 in 2.0 mi NNE 12.7 mph - 0.00 in Snow Light Snow
3:20 PM 39.2 °F 30.8 °F 28.4 °F 65% 29.67 in 7.0 mi North 15.0 mph 23.0 mph 0.00 in   Overcast
3:53 PM 41.0 °F 33.9 °F 25.0 °F 53% 29.69 in 10.0 mi North 12.7 mph 21.9 mph 0.00 in   Overcast
4:53 PM 42.1 °F 35.7 °F 24.1 °F 49% 29.71 in 10.0 mi North 11.5 mph 24.2 mph N/A   Overcast
5:53 PM 41.0 °F 33.5 °F 24.1 °F 51% 29.74 in 10.0 mi North 13.8 mph 21.9 mph N/A   Overcast
6:53 PM 41.0 °F 33.5 °F 24.1 °F 51% 29.78 in 10.0 mi North 13.8 mph - N/A   Overcast
7:53 PM 39.9 °F 30.8 °F 24.1 °F 53% 29.82 in 10.0 mi North 18.4 mph 21.9 mph N/A   Overcast
8:53 PM 39.0 °F 31.4 °F 25.0 °F 57% 29.85 in 10.0 mi North 12.7 mph - N/A   Overcast
9:53 PM 37.9 °F 32.1 °F 26.1 °F 62% 29.88 in 10.0 mi North 8.1 mph - N/A   Overcast
10:53 PM 37.9 °F 32.1 °F 27.0 °F 65% 29.90 in 10.0 mi NNW 8.1 mph - N/A   Overcast
11:53 PM 37.9 °F 30.5 °F 27.0 °F 65% 29.91 in 10.0 mi NNW 11.5 mph - N/A   Overcast